SBI6431 UIII-UNKL

Flight info

Callsign SBI6431
Flight time 0h 48m
Altitude 32000
Route BOGRA4C BOGRA A815 TUTEK A91 SUKOR W176 TISBU A311 LALOM LALOM2S
Aircraft A21N/M-SDE2E3FGHIRWXY/LB1

Departure

Time 2026-05-09 14:01
Airport Irkutsk International Airport (UIII)

Arrival

Time 2026-05-09 14:49
Airport Krasnoyarsk International Airport (UNKL)
Time Latitude Longitude Altitude Speed Heading
2026-05-09 13:30 52.27198 104.36449 1595 ft 0 kts 202°
2026-05-09 13:54 52.27200 104.36449 1595 ft 0 kts 202°
2026-05-09 13:54 52.27202 104.36451 1594 ft 0 kts 202°
2026-05-09 13:55 52.27194 104.36446 1595 ft 2 kts 202°
2026-05-09 13:55 52.27155 104.36442 1597 ft 7 kts 151°
2026-05-09 13:55 52.27125 104.36523 1599 ft 15 kts 109°
2026-05-09 13:55 52.27093 104.36681 1601 ft 12 kts 110°
2026-05-09 13:56 52.27069 104.36791 1604 ft 9 kts 109°
2026-05-09 13:56 52.27047 104.36893 1605 ft 10 kts 109°
2026-05-09 13:56 52.27021 104.37007 1605 ft 11 kts 111°
2026-05-09 13:56 52.26994 104.37118 1607 ft 10 kts 110°
2026-05-09 13:57 52.27006 104.37233 1606 ft 11 kts 56°
2026-05-09 13:57 52.27058 104.37350 1602 ft 4 kts 54°
2026-05-09 13:57 52.27059 104.37352 1602 ft 0 kts 54°
2026-05-09 13:58 52.27077 104.37392 1600 ft 9 kts 54°
2026-05-09 13:58 52.27134 104.37521 1596 ft 17 kts 53°
2026-05-09 13:58 52.27182 104.37689 1593 ft 14 kts 99°
2026-05-09 13:58 52.27172 104.37748 1595 ft 0 kts 110°
2026-05-09 13:59 52.27172 104.37749 1595 ft 0 kts 110°
2026-05-09 13:59 52.27169 104.37757 1595 ft 0 kts 113°
2026-05-09 14:00 52.27158 104.37801 1596 ft 24 kts 113°
2026-05-09 14:01 52.26987 104.38435 1611 ft 94 kts 114°
2026-05-09 14:01 52.26644 104.39746 1640 ft 157 kts 114°
2026-05-09 14:01 52.26154 104.41586 2046 ft 180 kts 113°
2026-05-09 14:01 52.25696 104.43433 2838 ft 180 kts 103°
2026-05-09 14:02 52.25834 104.45389 3512 ft 184 kts 57°
2026-05-09 14:02 52.26877 104.46676 4030 ft 199 kts 20°
2026-05-09 14:02 52.28243 104.47418 4584 ft 217 kts 17°
2026-05-09 14:02 52.29713 104.48216 5092 ft 237 kts 18°
2026-05-09 14:03 52.31332 104.49174 5601 ft 259 kts 20°
2026-05-09 14:03 52.33067 104.50267 6329 ft 273 kts 21°
2026-05-09 14:03 52.34840 104.51424 7243 ft 279 kts 21°
2026-05-09 14:03 52.36628 104.52615 8217 ft 282 kts 21°
2026-05-09 14:04 52.38452 104.53839 9169 ft 286 kts 22°
2026-05-09 14:04 52.40278 104.55069 10089 ft 290 kts 22°
2026-05-09 14:04 52.42156 104.56335 10851 ft 300 kts 22°
2026-05-09 14:04 52.44128 104.57664 11368 ft 319 kts 21°
2026-05-09 14:05 52.46224 104.59077 12083 ft 329 kts 21°
2026-05-09 14:05 52.48356 104.60347 12969 ft 333 kts 12°
2026-05-09 14:05 52.50666 104.60505 13827 ft 337 kts 350°
2026-05-09 14:05 52.52870 104.59271 14667 ft 341 kts 328°
2026-05-09 14:06 52.54787 104.57017 15522 ft 344 kts 321°
2026-05-09 14:06 52.56676 104.54555 16326 ft 349 kts 321°
2026-05-09 14:06 52.58598 104.52035 17103 ft 353 kts 321°
2026-05-09 14:06 52.60519 104.49529 17849 ft 357 kts 321°
2026-05-09 14:07 52.62472 104.46995 18571 ft 361 kts 321°
2026-05-09 14:07 52.64449 104.44441 19264 ft 365 kts 321°
2026-05-09 14:07 52.66455 104.41849 19773 ft 374 kts 321°
2026-05-09 14:07 52.68530 104.39171 19998 ft 386 kts 321°
2026-05-09 14:08 52.70618 104.36474 20005 ft 372 kts 321°
2026-05-09 14:08 52.72638 104.33866 20013 ft 370 kts 321°
2026-05-09 14:08 52.74648 104.31267 20016 ft 369 kts 321°
2026-05-09 14:08 52.76663 104.28660 20058 ft 372 kts 321°
2026-05-09 14:09 52.78721 104.25993 20443 ft 375 kts 321°
2026-05-09 14:09 52.80771 104.23334 20943 ft 375 kts 321°
2026-05-09 14:09 52.82816 104.20677 21360 ft 377 kts 321°
2026-05-09 14:09 52.84898 104.17969 21749 ft 379 kts 321°
2026-05-09 14:10 52.89038 104.12575 22504 ft 384 kts 321°
2026-05-09 14:10 52.91151 104.09818 22875 ft 386 kts 321°
2026-05-09 14:10 52.93241 104.07086 23231 ft 388 kts 321°
2026-05-09 14:11 52.95381 104.04287 23587 ft 390 kts 321°
2026-05-09 14:11 52.97489 104.01527 23929 ft 392 kts 321°
2026-05-09 14:11 52.99632 103.98717 24268 ft 394 kts 321°
2026-05-09 14:11 53.01770 103.95910 24598 ft 396 kts 321°
2026-05-09 14:12 53.03938 103.93063 24925 ft 398 kts 321°
2026-05-09 14:12 53.06110 103.90207 25244 ft 400 kts 321°
2026-05-09 14:12 53.08294 103.87328 25556 ft 402 kts 321°
2026-05-09 14:12 53.10505 103.84408 25863 ft 404 kts 321°
2026-05-09 14:13 53.12712 103.81536 26158 ft 406 kts 323°
2026-05-09 14:14 53.30473 103.66309 28003 ft 418 kts 335°
2026-05-09 14:15 53.33106 103.64247 28014 ft 418 kts 335°
2026-05-09 14:15 53.38327 103.60144 28022 ft 418 kts 335°
2026-05-09 14:16 53.43585 103.55995 28024 ft 418 kts 335°
2026-05-09 14:16 53.48757 103.51598 28019 ft 418 kts 326°
2026-05-09 14:16 53.50980 103.48490 28023 ft 418 kts 314°
2026-05-09 14:17 53.52779 103.44676 28024 ft 418 kts 303°
2026-05-09 14:17 53.55663 103.36256 28026 ft 418 kts 299°
2026-05-09 14:18 53.58499 103.27665 28025 ft 418 kts 299°
2026-05-09 14:18 53.61315 103.19198 28024 ft 418 kts 299°
2026-05-09 14:19 53.64160 103.10680 28024 ft 418 kts 299°
2026-05-09 14:19 53.67009 103.02134 28024 ft 418 kts 299°
2026-05-09 14:20 53.69846 102.93604 28024 ft 418 kts 299°
2026-05-09 14:20 53.72682 102.85049 28024 ft 418 kts 299°
2026-05-09 14:21 53.76922 102.72212 28024 ft 418 kts 299°
2026-05-09 14:21 53.79866 102.63245 28024 ft 418 kts 299°
2026-05-09 14:22 53.96618 102.11507 28033 ft 418 kts 298°
2026-05-09 14:22 54.13266 101.59174 28026 ft 418 kts 298°
2026-05-09 14:23 54.18562 101.42445 28025 ft 418 kts 298°
2026-05-09 14:23 54.21106 101.34333 28025 ft 418 kts 298°
2026-05-09 14:24 54.23622 101.26241 28024 ft 418 kts 297°
2026-05-09 14:24 54.26128 101.18158 28024 ft 418 kts 297°
2026-05-09 14:25 54.28658 101.09975 28024 ft 418 kts 297°
2026-05-09 14:25 54.31168 101.01834 28024 ft 418 kts 298°
2026-05-09 14:26 54.33661 100.93725 28024 ft 418 kts 298°
2026-05-09 14:26 54.36168 100.85541 28024 ft 418 kts 298°
2026-05-09 14:27 54.38654 100.77399 28024 ft 418 kts 298°
2026-05-09 14:27 54.41756 100.67202 28025 ft 418 kts 298°
2026-05-09 14:28 54.57753 100.13879 28035 ft 418 kts 297°
2026-05-09 14:28 54.73562 99.59989 28021 ft 418 kts 297°
2026-05-09 14:29 54.85557 99.18275 28029 ft 418 kts 296°
2026-05-09 14:29 54.88079 99.09382 28025 ft 418 kts 295°
2026-05-09 14:30 54.97454 98.67217 28026 ft 418 kts 289°
2026-05-09 14:30 55.07120 98.20599 28036 ft 418 kts 290°
2026-05-09 14:31 55.18952 97.63315 28023 ft 418 kts 290°
2026-05-09 14:31 55.30437 97.05824 28026 ft 418 kts 289°
2026-05-09 14:32 55.41988 96.47708 28033 ft 418 kts 289°
2026-05-09 14:32 55.53159 95.89443 28020 ft 418 kts 288°
2026-05-09 14:33 55.58602 95.60444 26852 ft 416 kts 288°
2026-05-09 14:33 55.63946 95.31571 25387 ft 408 kts 288°
2026-05-09 14:33 55.69127 95.03095 23914 ft 398 kts 288°
2026-05-09 14:33 55.74115 94.75299 22296 ft 389 kts 288°
2026-05-09 14:34 55.78896 94.48286 20425 ft 382 kts 288°
2026-05-09 14:34 55.83647 94.21169 17640 ft 379 kts 287°
2026-05-09 14:34 55.84865 94.14488 17010 ft 373 kts 288°
2026-05-09 14:34 55.85677 94.10149 16814 ft 361 kts 288°
2026-05-09 14:35 55.86460 94.05928 16614 ft 349 kts 288°
2026-05-09 14:35 55.87197 94.01915 16258 ft 331 kts 288°
2026-05-09 14:35 55.87895 93.98077 15534 ft 328 kts 288°
2026-05-09 14:35 55.88621 93.94057 14929 ft 330 kts 288°
2026-05-09 14:36 55.89314 93.90203 14763 ft 319 kts 288°
2026-05-09 14:36 55.89985 93.86453 14585 ft 309 kts 288°
2026-05-09 14:36 55.90636 93.82843 14404 ft 300 kts 289°
2026-05-09 14:36 55.91329 93.79353 14119 ft 295 kts 290°
2026-05-09 14:37 55.92046 93.75844 13657 ft 297 kts 290°
2026-05-09 14:37 55.92759 93.72372 13157 ft 300 kts 290°
2026-05-09 14:37 55.93483 93.68833 12651 ft 302 kts 290°
2026-05-09 14:37 55.94210 93.65273 12145 ft 303 kts 290°
2026-05-09 14:38 55.94926 93.61757 11638 ft 298 kts 290°
2026-05-09 14:38 55.95644 93.58223 11133 ft 301 kts 290°
2026-05-09 14:38 55.96372 93.54639 10675 ft 301 kts 290°
2026-05-09 14:38 55.97085 93.51121 10373 ft 296 kts 290°
2026-05-09 14:39 55.97784 93.47647 10061 ft 292 kts 290°
2026-05-09 14:39 55.98469 93.44241 9755 ft 287 kts 290°
2026-05-09 14:39 55.99148 93.40862 9450 ft 283 kts 290°
2026-05-09 14:39 55.99818 93.37525 9148 ft 278 kts 290°
2026-05-09 14:40 56.00467 93.34285 8854 ft 274 kts 289°
2026-05-09 14:40 56.01115 93.31036 8558 ft 270 kts 289°
2026-05-09 14:40 56.01742 93.27889 8271 ft 266 kts 288°
2026-05-09 14:40 56.02288 93.24702 7983 ft 261 kts 284°
2026-05-09 14:41 56.02718 93.21556 7697 ft 257 kts 283°
2026-05-09 14:41 56.03128 93.18446 7408 ft 253 kts 283°
2026-05-09 14:41 56.03534 93.15360 7120 ft 249 kts 283°
2026-05-09 14:41 56.03928 93.12358 6838 ft 245 kts 283°
2026-05-09 14:42 56.04321 93.09367 6521 ft 242 kts 283°
2026-05-09 14:42 56.04706 93.06432 6196 ft 240 kts 283°
2026-05-09 14:42 56.05086 93.03532 5778 ft 234 kts 283°
2026-05-09 14:42 56.05456 93.00710 5420 ft 226 kts 283°
2026-05-09 14:43 56.05814 92.98016 5122 ft 214 kts 284°
2026-05-09 14:43 56.06226 92.95483 4727 ft 207 kts 288°
2026-05-09 14:43 56.06726 92.93104 4393 ft 202 kts 292°
2026-05-09 14:43 56.07280 92.90802 4202 ft 189 kts 294°
2026-05-09 14:44 56.07811 92.88717 3983 ft 177 kts 296°
2026-05-09 14:44 56.08336 92.86795 3718 ft 164 kts 296°
2026-05-09 14:44 56.08820 92.84975 3329 ft 158 kts 295°
2026-05-09 14:44 56.09280 92.83168 2863 ft 157 kts 294°
2026-05-09 14:45 56.09718 92.81387 2643 ft 156 kts 294°
2026-05-09 14:45 56.10157 92.79561 2640 ft 157 kts 293°
2026-05-09 14:45 56.10595 92.77754 2631 ft 157 kts 293°
2026-05-09 14:45 56.11034 92.75917 2627 ft 157 kts 293°
2026-05-09 14:46 56.11461 92.74102 2626 ft 157 kts 293°
2026-05-09 14:46 56.11890 92.72259 2626 ft 157 kts 292°
2026-05-09 14:46 56.12318 92.70422 2625 ft 157 kts 293°
2026-05-09 14:46 56.12746 92.68587 2625 ft 157 kts 293°
2026-05-09 14:47 56.13169 92.66775 2621 ft 158 kts 293°
2026-05-09 14:47 56.13599 92.64938 2474 ft 157 kts 293°
2026-05-09 14:47 56.14029 92.63110 2257 ft 157 kts 293°
2026-05-09 14:47 56.14455 92.61297 2047 ft 156 kts 293°
2026-05-09 14:48 56.14883 92.59483 1839 ft 155 kts 293°
2026-05-09 14:48 56.15306 92.57694 1629 ft 155 kts 292°
2026-05-09 14:48 56.15730 92.55894 1422 ft 155 kts 293°
2026-05-09 14:48 56.16159 92.54092 1210 ft 154 kts 292°
2026-05-09 14:49 56.16581 92.52299 999 ft 153 kts 293°
2026-05-09 14:49 56.16964 92.50652 928 ft 115 kts 300°
2026-05-09 14:49 56.17182 92.49759 917 ft 50 kts 294°
2026-05-09 14:49 56.17305 92.49251 911 ft 36 kts 294°
2026-05-09 14:50 56.17372 92.48974 909 ft 18 kts 293°
2026-05-09 14:50 56.17426 92.48749 906 ft 20 kts 293°
2026-05-09 14:50 56.17525 92.48566 906 ft 19 kts 323°
2026-05-09 14:50 56.17634 92.48415 907 ft 19 kts 325°
2026-05-09 14:51 56.17748 92.48296 910 ft 17 kts 332°
2026-05-09 14:51 56.17854 92.48211 913 ft 15 kts 342°
2026-05-09 14:51 56.17965 92.48176 914 ft 15 kts 356°
2026-05-09 14:51 56.18027 92.48201 915 ft 0 kts 32°